Location: Gierst�dt
(51.0430°N, 10.8250°E)
Time: 03:15:16
(UTC+00:00)

Daily predictions for brighter satellites

Satellite Brightness Start Highest point End
(mag) Time Altitude Azimuth Time Altitude Azimuth Time Altitude Azimuth
ATLAS 3B R/B 4.3 01:00:28 27° ENE 01:00:28 27° ENE 01:03:56 10° E
CENTAUR R/B 3.8 01:07:28 47° NE 01:07:28 47° NE 01:15:10 10° E
Cosmos 2322 Rocket 4.3 01:22:09 21° NNE 01:22:09 21° NNE 01:23:57 10° NNE
Cosmos 2360 Rocket 4.1 01:29:59 25° NE 01:29:59 25° NE 01:32:19 10° NE
ATLAS 2AS CENTAUR R/B 4.5 01:29:01 26° SE 01:30:14 27° ESE 01:36:36 10° ENE
ADEOS II 4.3 01:26:07 10° NNE 01:28:07 22° NE 01:28:07 22° NE
Cosmos 1980 Rocket 4.4 01:36:03 18° N 01:36:03 18° N 01:37:47 10° NNE
CZ-2D R/B 4.4 01:47:02 10° N 01:48:13 17° N 01:48:13 17° N
USA 267 4.1 01:58:05 10° ENE 02:03:56 40° SE 02:03:56 40° SE
Cosmos 2278 Rocket 3.9 02:10:08 24° ESE 02:10:08 24° ESE 02:12:19 10° SE
Cosmos 2098 Rocket 4.4 02:09:19 74° NNE 02:09:19 74° NNE 02:15:46 10° N
NOSS 3-2 (C) 3.8 02:20:06 88° SSW 02:20:06 88° SSW 02:28:23 10° SE
Cosmos 2333 Rocket 2.8 02:21:07 53° E 02:21:07 53° E 02:25:55 10° NE
ATLAS 5 CENTAUR R/B 4.0 02:25:27 32° N 02:26:35 35° NNE 02:37:24 10° E
SL-16 R/B 3.8 02:35:37 25° NNW 02:35:37 25° NNW 02:38:49 10° NNE
BREEZE-M R/B 4.1 02:35:05 56° ESE 02:35:05 56° ESE 02:42:19 10° E
Cosmos 2219 Rocket 2.4 02:37:21 67° ENE 02:37:21 67° ENE 02:42:21 10° NNE
Cosmos 2181 Rocket 3.9 02:33:18 10° N 02:39:43 86° E 02:40:21 74° SSE
USA 234 3.1 02:33:48 10° ESE 02:40:22 86° SSW 02:40:51 78° WNW
Cosmos 2322 4.1 02:41:42 54° N 02:41:42 54° N 02:46:18 10° NNE
ARIANE 5 R/B 3.9 02:41:03 10° N 02:43:30 28° N 02:43:30 28° N
Resurs 1-4 Rocket 4.2 02:42:22 10° N 02:43:43 16° NNW 02:43:43 16° NNW
COSMOS 2455 3.0 02:49:04 60° NNW 02:49:04 60° NNW 02:54:35 10° NNE
ATLAS 3B R/B 2.5 02:47:49 61° NW 02:49:10 89° SW 02:56:02 10° SE
Cosmos 2237 Rocket 3.3 02:47:34 28° SSE 02:49:55 41° ESE 02:55:15 10° NE
ADEOS 4.3 02:46:39 10° NNE 02:51:44 49° E 02:54:07 29° SSE
Aureole 1 Rocket 3.6 02:52:37 68° NNE 02:52:37 68° NNE 02:56:31 10° NNE
CENTAUR R/B 3.0 02:54:44 36° NW 02:58:28 77° SW 03:07:06 10° SSE
Gblst 52 Del rocket 4.0 02:59:15 87° SSW 02:59:15 87° SSW 03:04:58 10° ESE
H-2A R/B 4.1 02:55:42 10° NNE 02:59:30 33° E 03:02:19 16° SSE
Cosmos 2369 Rocket 4.4 02:55:56 10° NNW 03:00:17 22° NE 03:04:35 10° E
Cosmos 2322 Rocket 3.7 03:03:58 22° NNW 03:03:58 22° NNW 03:07:34 10° NNE
Cosmos 1980 4.1 03:05:16 34° S 03:07:34 58° ESE 03:13:08 10° NE
ADEOS II 3.3 03:06:01 10° N 03:09:02 28° NNW 03:09:02 28° NNW
Cosmos 1953 3.1 03:06:55 10° N 03:10:53 51° ENE 03:14:47 10° SSE
Cosmos 2360 Rocket 3.2 03:11:45 30° NNW 03:11:45 30° NNW 03:16:10 10° NNE
COSMOS 2428 2.6 03:11:04 66° WNW 03:11:19 67° WNW 03:17:00 10° NNE
Cosmos 389 Rocket 3.6 03:16:49 41° E 03:16:54 41° E 03:20:12 10° NNE
NOSS 2-2 (C) 3.8 03:18:09 54° N 03:18:09 54° N 03:21:56 10° NE
Cosmos 1980 Rocket 4.4 03:17:49 11° NNW 03:19:02 11° NNW 03:20:54 10° N
ATLAS 2AS CENTAUR R/B 3.0 03:16:30 35° SW 03:20:24 85° SE 03:28:27 10° NE
Cosmos 44 Rocket 3.5 03:18:53 37° NNW 03:20:35 63° NE 03:25:15 10° SE
Cosmos 1707 3.5 03:21:26 29° SSE 03:23:07 53° E 03:26:57 10° NNE
Cosmos 1943 Rocket 3.8 03:21:50 10° NNW 03:26:55 32° NE 03:32:00 10° ESE
ERBS 2.9 03:31:01 55° NE 03:31:01 55° NE 03:33:46 10° ENE
MSX 4.0 03:25:11 10° NNE 03:30:57 73° ESE 03:36:40 10° S
CZ-2D R/B 4.3 03:29:21 10° NNW 03:29:32 10° NNW 03:29:32 10° NNW
CZ-2C R/B 3.3 03:27:17 10° NNE 03:32:22 51° E 03:37:23 10° S
Cosmos 2228 3.3 03:29:31 10° N 03:33:47 65° ENE 03:38:00 10° SSE
Cosmos 2154 Rocket 4.5 03:28:42 10° S 03:34:46 61° E 03:40:53 10° NNE
Cosmos 1709 Rocket 4.4 03:34:59 40° W 03:35:38 41° WNW 03:41:39 10° N
NOSS 0 Rocket 3.8 03:33:20 32° SW 03:36:24 84° WNW 03:42:39 10° NNE
COSMO-SKYMED 1 4.3 03:32:47 10° SE 03:36:42 34° ENE 03:40:39 10° N
IDEFIX/ARIANE 42P 2.5 03:33:25 10° N 03:38:40 70° WNW 03:41:20 29° SSW
Cosmos 1025 Rocket 3.5 03:40:24 42° NW 03:40:24 42° NW 03:43:51 10° N
PSLV R/B 3.4 03:36:59 10° N 03:41:11 63° WNW 03:41:40 57° WSW
Cosmos 1726 Rocket 3.7 03:36:57 10° N 03:41:18 73° E 03:45:36 10° SSE
Cosmos 2251 Rocket 4.5 03:41:48 30° NW 03:41:48 30° NW 03:46:31 10° N
BREEZE-M DEB (TANK) 3.0 03:43:32 40° ESE 03:43:32 40° ESE 03:45:18 10° E
Cosmos 2184 Rocket 3.9 03:37:42 10° SSW 03:43:57 79° W 03:50:18 10° N
SL-16 R/B 3.3 03:39:17 10° S 03:44:36 43° ESE 03:49:57 10° NE
Meteor 1-16 Rocket 4.1 03:40:28 10° N 03:45:49 80° ENE 03:51:12 10° SSE
USA 267 3.2 03:41:03 10° ENE 03:47:38 85° NNW 03:51:17 29° WSW
RESURS DK-1 3.5 03:44:47 10° S 03:48:40 42° ESE 03:52:36 10° NE
Nadezhda 3 Rocket 4.0 03:42:31 10° N 03:48:56 88° W 03:55:17 10° S
Cosmos 2278 Rocket 3.2 03:52:09 27° SW 03:52:09 27° SW 03:55:28 10° SSW
NOSS 2-2 (E) 4.2 03:52:07 34° NW 03:52:41 36° NNW 03:57:06 10° NE
Cosmos 2297 3.6 03:48:14 10° NNW 03:54:00 78° WSW 03:59:44 10° SSE
Cosmos 676 Rocket 4.2 03:49:20 10° SSW 03:54:34 71° ESE 03:59:48 10° NNE
Cosmos 407 Rocket 3.5 03:59:53 24° SW 04:02:53 60° WNW 04:07:59 10° NNE
Cosmos 1190 Rocket 4.0 04:00:14 19° SW 04:04:04 66° WNW 04:09:21 10° NNE
Cosmos 2333 Rocket 3.0 04:03:09 28° W 04:04:55 33° NW 04:10:06 10° NNE
Okean O Rocket 4.1 04:01:25 10° NE 04:05:03 25° E 04:08:39 10° SSE
Cosmos 2058 Rocket 3.1 04:01:19 10° N 04:05:45 85° E 04:10:11 10° S
CZ-4B R/B 3.9 04:02:55 10° NNE 04:06:55 82° ESE 04:11:05 10° SSW
Cosmos 2074 Rocket 4.2 04:07:52 10° SSW 04:13:53 49° WNW 04:19:55 10° N
Meteor 2-10 3.9 04:09:43 10° NNW 04:14:55 75° W 04:20:15 10° S
Cosmos 1295 Rocket 4.5 04:11:20 10° S 04:17:31 89° E 04:23:40 10° N
Meteor PRIRODA 3.9 04:14:24 10° NNE 04:18:10 73° ESE 04:21:53 10° S
SL-16 R/B 4.3 04:18:08 10° NW 04:20:06 12° NNW 04:22:03 10° N
Cosmos 2219 Rocket 3.2 04:19:05 21° WNW 04:21:17 27° NW 04:26:01 10° NNE
USA 234 3.9 04:18:08 10° SSE 04:23:56 33° SW 04:28:13 17° WNW
ARIANE 5 R/B 4.5 04:22:45 10° NNW 04:23:50 11° NW 04:23:50 11° NW
SKYMED 2 3.5 04:20:16 10° SSE 04:24:37 88° WSW 04:29:00 10° NNW
Cosmos 2344 4.4 04:17:37 10° NW 04:27:08 75° SW 04:40:23 10° SSE
Cosmos 1437 Rocket 2.6 04:25:15 10° S 04:29:02 90° ESE 04:32:52 10° NNE
NOSS 3-4 (A) 3.6 04:25:47 15° WSW 04:30:49 62° NW 04:37:21 10° NE
NOSS 3-4 (C) 3.6 04:25:49 15° WSW 04:30:54 62° NW 04:37:27 10° NE
ADEOS 4.4 04:26:33 10° N 04:31:04 30° WNW 04:34:54 13° WSW
Cosmos 1892 Rocket 3.5 04:26:43 10° SSW 04:31:06 65° WNW 04:35:29 10° N
ASTEX 1 4.5 04:27:01 10° SSE 04:31:41 48° ENE 04:36:25 10° N
In-Cosmos 22 4.1 04:26:52 10° SSW 04:32:15 74° WNW 04:37:48 10° N
ALOS 3.5 04:28:02 10° NNE 04:32:34 46° E 04:37:03 10° S
Cosmos 2237 Rocket 2.6 04:29:28 14° WSW 04:34:00 43° NW 04:39:28 10° NNE
Meteor 2-5 Rocket 4.0 04:28:13 10° S 04:34:02 77° E 04:39:59 10° NNE
H-2A R/B 3.3 04:31:17 10° N 04:34:57 31° WNW 04:38:45 10° SW
COSMOS 2455 4.2 04:32:13 15° WNW 04:35:42 23° NNW 04:40:28 10° NNE
PSLV R/B 3.6 04:32:37 10° NNE 04:36:22 83° WNW 04:40:03 10° SSW
BREEZE-M DEB (TANK) 1.8 04:35:29 18° W 04:38:05 69° S 04:40:19 10° E
Cosmos 1606 Rocket 4.4 04:35:10 10° NNW 04:38:46 26° W 04:42:21 10° SW
ATLAS 3B R/B 3.7 04:35:09 14° WNW 04:39:05 24° WSW 04:44:17 10° SSW
CZ-4B DEB 4.5 04:35:04 10° NNE 04:40:34 73° ESE 04:46:00 10° S
Cosmos 1140 Rocket 3.8 04:35:46 10° SW 04:40:44 44° WNW 04:45:41 10° NNE
Cosmos 1954 Rocket 4.1 04:35:47 10° SW 04:40:56 57° WNW 04:46:05 10° NNE
Cosmos 1908 3.2 04:38:33 10° NNW 04:42:20 58° W 04:46:06 10° S
Meteor 1-4 Rocket 3.5 04:41:56 12° SW 04:44:37 26° WNW 04:47:35 10° N
PAYLOAD A 4.5 04:40:31 10° N 04:44:55 36° WNW 04:49:26 10° SW
Cosmos 2369 Rocket 2.3 04:39:32 10° NNW 04:45:10 83° ENE 04:50:47 10° SSE
Cosmos 1726 2.7 04:43:12 10° NNW 04:46:33 33° W 04:49:52 10° SSW
Cosmos 1953 3.8 04:44:15 10° NW 04:46:54 17° W 04:49:31 10° SW
GP-B 3.4 04:44:04 10° SSW 04:48:19 45° W 04:52:37 10° NNW
CENTAUR R/B 4.1 04:42:16 10° WNW 04:48:23 24° WSW 04:54:51 10° SSW
Cosmos 468 Rocket 4.0 04:43:29 10° NNW 04:48:35 60° WSW 04:53:36 10° S
Cosmos 2322 Rocket 4.4 04:48:55 10° NNW 04:49:34 10° N 04:50:13 10° N
Cosmos 389 Rocket 4.1 04:50:47 14° W 04:51:53 16° WNW 04:54:10 10° NNW
Cosmos 1980 4.5 04:47:11 11° WSW 04:52:00 33° NW 04:57:06 10° NNE
CZ-4B R/B 3.4 04:49:34 10° N 04:53:16 35° WNW 04:56:47 10° SW
PAYLOAD B 4.4 04:48:12 10° NNE 04:53:49 82° ESE 04:59:21 10° SSW
USA 116 3.4 04:51:17 10° S 04:54:51 60° WSW 04:58:08 10° NNW
CZ-4B R/B 3.6 04:50:33 10° NNE 04:55:51 66° ESE 05:01:07 10° S
Meteor 1-31 Rocket 3.5 04:53:12 10° N 04:56:34 30° WNW 04:59:53 10° SW
COSMOS 2428 4.2 04:53:06 12° WNW 04:56:41 20° NNW 05:00:45 10° NNE
Cosmos 2360 Rocket 4.2 04:54:55 10° NW 04:57:07 12° NNW 04:59:19 10° N
Cosmos 1707 4.3 04:56:44 10° WSW 04:59:21 17° WNW 05:01:58 10° NNW
Cosmos 1812 Rocket 3.6 04:54:57 10° N 04:59:28 89° SW 05:03:56 10° S
Cosmos 1656 Rocket 4.4 04:54:55 10° NNW 05:00:17 52° NE 05:05:34 10° SE
Cosmos 1570 Rocket 4.1 04:55:21 10° NNW 05:00:41 67° WSW 05:05:57 10° S
Cosmos 44 Rocket 4.3 04:57:58 10° WNW 05:01:44 24° WSW 05:05:29 10° SSW
Cosmos 1626 Rocket 3.5 05:01:38 10° SSW 05:05:57 77° WNW 05:10:18 10° N
Cosmos 841 Rocket 3.5 05:01:40 10° NNW 05:06:59 86° WSW 05:12:15 10° SSE
ERBS 3.4 05:04:03 10° WNW 05:07:04 32° N 05:10:10 10° NE
CZ-2C R/B 3.4 05:05:55 10° N 05:10:21 29° WNW 05:14:45 10° WSW
Cosmos 1943 Rocket 2.3 05:05:27 10° NW 05:11:03 60° WSW 05:16:37 10° SSE
Okean 1-7 Rocket 4.5 05:07:10 10° SW 05:11:05 29° WNW 05:15:03 10° N
ATLAS 2AS CENTAUR R/B 3.6 05:04:36 10° W 05:12:15 44° NNW 05:19:44 10° NE
Cosmos 1484 Rocket 3.1 05:08:54 10° N 05:12:29 41° WNW 05:16:06 10° SW
Cosmos 1674 3.1 05:09:02 10° SW 05:12:31 38° WNW 05:16:02 10° N
COSMO-SKYMED 1 3.3 05:09:01 10° SSW 05:12:53 31° W 05:16:47 10° NNW
BREEZE-M DEB (TANK) 4.2 05:09:17 10° SW 05:12:57 28° S 05:15:23 10° ESE
Cosmos 2208 Rocket 4.1 05:09:18 10° NNW 05:14:26 60° WSW 05:19:36 10° S
FENGYUN 3A 3.7 05:09:51 10° NNE 05:15:21 85° WNW 05:20:47 10° SSW
BREEZE-M DEB (TANK) 4.5 04:52:44 10° W 05:15:32 82° S 05:20:24 10° E
METEOR-M 4.1 05:10:40 10° NNE 05:16:02 80° WNW 05:21:23 10° SSW
Cosmos 2218 Rocket 4.0 05:10:33 10° SSW 05:16:55 71° WNW 05:23:14 10° N
IDEFIX/ARIANE 42P 4.2 05:14:36 10° NNW 05:17:22 15° NW 05:20:08 10° W
